Overview Statistics Trail Chart Weather Telemetry Raw packets
 

This is the latest recevied weather packets stored in our database for station/object K4GDX. If no packets are shown the sender has not sent any weather packets the latest 10 day(s).

<< 109 110 111 112 113 114 >>
Time Temp. Humidity Pressure Rain* Wind** Luminosity Snow
1787774700 31.67° C 79% 1014.8 hPa 0 mm - 290 W/m² -
1787774406 31.67° C 79% 1014.8 hPa 0 mm - 673 W/m² -
1787774101 31.67° C 78% 1014.8 hPa 0 mm - 267 W/m² -
1787773803 31.67° C 78% 1014.8 hPa 0 mm - 248 W/m² -
1787773500 31.67° C 78% 1014.7 hPa 0 mm - 309 W/m² -
1787773191 31.67° C 77% 1014.8 hPa 0 mm - 199 W/m² -
1787772891 31.67° C 78% 1014.7 hPa 0 mm - 842 W/m² -
1787772590 31.11° C 81% 1014.6 hPa 0 mm - 550 W/m² -
1787772288 31.11° C 79% 1014.7 hPa 0 mm - 186 W/m² -
1787771991 31.11° C 80% 1014.8 hPa 0 mm - 167 W/m² -
1787771689 31.11° C 78% 1014.7 hPa 0 mm - 185 W/m² -
1787771388 31.67° C 79% 1014.9 hPa 0 mm - 939 W/m² -
1787771088 31.67° C 77% 1014.9 hPa 0 mm - 204 W/m² -
1787770788 32.22° C 76% 1014.9 hPa 0 mm - 134 W/m² -
1787770488 32.22° C 78% 1014.8 hPa 0 mm - 923 W/m² -
1787770188 31.67° C 78% 1014.8 hPa 0 mm - 870 W/m² -
1787769884 31.67° C 79% 1014.8 hPa 0 mm - 870 W/m² -
1787769584 31.67° C 80% 1014.9 hPa 0 mm - 918 W/m² -
1787769282 31.11° C 80% 1014.9 hPa 0 mm - 954 W/m² -
1787768981 31.11° C 80% 1015.1 hPa 0 mm - 253 W/m² -
1787768681 31.67° C 79% 1015 hPa 0 mm - 146 W/m² -
1787768378 31.67° C 79% 1014.9 hPa 0 mm - 232 W/m² -
1787768080 31.67° C 78% 1015 hPa 0 mm - 246 W/m² -
1787767778 32.22° C 76% 1015 hPa 0 mm - 207 W/m² -
1787767475 32.78° C 73% 1015.1 hPa 0 mm - 163 W/m² -

* Rain latest hour (hover to see other rain measurements)
** Current wind speed in m/s (hover to see current wind gust speed)